Погода в Олехово

Россия / Калининградская область     54°23′25″N   21°49′09″E
темп.,
°C
ветер,
м/с
пор.,
м/с
влажн.,
%
обл.,
%
осадки,
мм/ч
давл.,
гПа
погр.,
м
18 мая, ср
ср1823:00+3ссз310760 0.0 1026224
02:000с24930 0.0 102766
05:000с22940 0.0 102831
08:00+7ссз23660 0.0 1029435
11:00+12сз33525 0.0 10291024
14:00+14сз34471 0.0 10281215
17:00+14сз44520 0.0 10271007
20:00+8с22775 0.0 102713
19 мая, чт
чт1923:00+5ююз228845 0.0 102711
02:00+5юз368453 0.0 102697
05:00+5юз397685 0.0 1025147
08:00+12юз586013 0.0 1025322
11:00+17зюз565081 0.0 1024668
14:00+19зюз465084 0.0 1023877
17:00+20зюз4661100 0.0 1021905
20:00+16юз3778100 0.0 1020145
20 мая, пт
пт2023:00+14ююз4973100 0.0 1019170
02:00+13ююз41172100 0.0 1017206
05:00+14юз51270100 0.0 1015297
08:00+17з7138099 0.0 1015788
11:00+15зсз81383100 0.0 1016907
14:00+16сз8127258 0.1 10161135
17:00+14сз71283100 0.0 1018660
20:00+11сз3591100 0.0 1019140
21 мая, сб
сб2123:00+9св1295100 0.0 101814
02:00+7в2597100 0.0 101895
05:00+7вюв499787 0.0 1015245
08:00+11юв61076100 0.0 1013566
11:00+13ююв61069100 0.0 10101038
14:00+10юв61295100 7.8 1008812
17:00+10ю2698100 3.7 1008455
20:00+10зюз1298100 4.4 100778
22 мая, вс
вс2223:00+10ююз259499 0.2 1006122
02:00+10вюв1197100 0.4 100631
05:00+9в259857 0.1 1007164
08:00+11св2390100 0.1 1009607
11:00+11св3487100 0.1 1010496
14:00+13с2284100 0.6 1012484
17:00+11ссз2493100 0.8 1013174
20:00+10сз2598100 1.1 1014230